CW5757 Weather Reports


Display with metric or nautical units.
time (UTC)temp
F
wind
direction
speed
MPH
gust
MPH
rain 1hr
in
rain 24hr
in
rain mn
in
humidity
%
barometer
mb
20220124155445 43 165 0.0 4.0 0.00 0.00 0.00 54 1014.0
20220124154946 43 165 0.0 0.0 0.00 0.00 0.00 55 1013.8
20220124154446 42 165 0.0 0.0 0.00 0.00 0.00 61 1013.7
20220124153945 42 165 0.0 0.0 0.00 0.00 0.00 60 1013.7
20220124153445 42 165 0.0 0.0 0.00 0.00 0.00 61 1013.7
20220124152946 41 165 0.0 0.0 0.00 0.00 0.00 61 1013.7
20220124152446 41 165 0.0 1.0 0.00 0.00 0.00 66 1013.7
20220124151946 40 165 0.0 3.0 0.00 0.00 0.00 62 1013.6
20220124151446 39 165 0.0 3.0 0.00 0.00 0.00 63 1013.6
20220124150946 39 165 0.0 0.0 0.00 0.00 0.00 67 1013.5
20220124150446 38 165 0.0 3.0 0.00 0.00 0.00 68 1013.6
20220124145946 37 165 0.0 3.0 0.00 0.00 0.00 69 1013.7
20220124145446 36 165 0.0 0.0 0.00 0.00 0.00 71 1013.8
20220124144946 36 165 0.0 0.0 0.00 0.00 0.00 73 1013.7
20220124144445 35 165 0.0 0.0 0.00 0.00 0.00 74 1013.7
20220124143946 34 165 0.0 2.0 0.00 0.00 0.00 75 1013.7
20220124143446 33 165 0.0 2.0 0.00 0.00 0.00 77 1013.7
20220124142946 33 165 0.0 0.0 0.00 0.00 0.00 78 1013.7
20220124142445 33 165 0.0 0.0 0.00 0.00 0.00 78 1013.7
20220124141946 33 165 0.0 0.0 0.00 0.00 0.00 78 1013.5
20220124141446 32 165 0.0 0.0 0.00 0.00 0.00 78 1013.4
20220124140945 32 165 0.0 0.0 0.00 0.00 0.00 78 1013.4
20220124140446 32 165 0.0 0.0 0.00 0.00 0.00 77 1013.3
20220124135945 32 165 0.0 0.0 0.00 0.00 0.00 77 1013.3
20220124135446 31 165 0.0 0.0 0.00 0.00 0.00 77 1013.3
20220124134945 31 165 0.0 0.0 0.00 0.00 0.00 77 1013.2
20220124134446 31 165 0.0 1.0 0.00 0.00 0.00 76 1013.1
20220124133946 31 165 0.0 1.0 0.00 0.00 0.00 76 1013.3
20220124133446 31 165 0.0 0.0 0.00 0.00 0.00 76 1013.3
20220124132945 31 165 0.0 0.0 0.00 0.00 0.00 76 1013.3
20220124132445 31 165 0.0 0.0 0.00 0.00 0.00 77 1013.3
20220124131945 31 165 0.0 0.0 0.00 0.00 0.00 76 1013.3
20220124131445 30 165 0.0 0.0 0.00 0.00 0.00 75 1013.3
20220124130946 30 165 0.0 0.0 0.00 0.00 0.00 75 1013.3
20220124130446 30 165 0.0 0.0 0.00 0.00 0.00 75 1013.3
20220124125946 31 165 0.0 0.0 0.00 0.00 0.00 76 1013.2
20220124125415 31 165 0.0 0.0 0.00 0.00 0.00 75 1013.3
20220124124915 31 165 0.0 0.0 0.00 0.00 0.00 75 1013.3
20220124124415 31 165 0.0 0.0 0.00 0.00 0.00 75 1013.3
20220124123915 31 165 0.0 0.0 0.00 0.00 0.00 74 1013.3
20220124123415 31 165 0.0 0.0 0.00 0.00 0.00 74 1013.3
20220124122915 31 165 0.0 0.0 0.00 0.00 0.00 74 1013.2
20220124122415 31 165 0.0 0.0 0.00 0.00 0.00 74 1013.1
20220124121915 31 165 0.0 0.0 0.00 0.00 0.00 74 1013.1
20220124121415 31 165 0.0 0.0 0.00 0.00 0.00 73 1013.1
20220124120915 31 165 0.0 0.0 0.00 0.00 0.00 73 1013.1
20220124120415 31 165 0.0 0.0 0.00 0.00 0.00 73 1013.2
20220124115915 31 165 0.0 0.0 0.00 0.00 0.00 73 1013.2
20220124115415 31 165 0.0 0.0 0.00 0.00 0.00 73 1013.2
20220124114915 31 165 0.0 0.0 0.00 0.00 0.00 73 1013.0
20220124114415 32 165 0.0 0.0 0.00 0.00 0.00 73 1012.8
20220124113915 32 165 0.0 0.0 0.00 0.00 0.00 73 1012.9
20220124113415 32 165 0.0 0.0 0.00 0.00 0.00 72 1012.9
20220124112915 32 165 0.0 0.0 0.00 0.00 0.00 72 1012.7
20220124112415 32 165 0.0 0.0 0.00 0.00 0.00 72 1012.9
20220124111915 32 165 0.0 0.0 0.00 0.00 0.00 71 1012.9
20220124111415 32 165 0.0 0.0 0.00 0.00 0.00 71 1012.9
20220124110915 32 165 0.0 0.0 0.00 0.00 0.00 72 1012.8
20220124110415 33 165 0.0 0.0 0.00 0.00 0.00 71 1012.5
20220124105915 33 165 0.0 0.0 0.00 0.00 0.00 70 1012.5
20220124105415 33 165 0.0 0.0 0.00 0.00 0.00 70 1012.5
20220124104915 33 165 0.0 0.0 0.00 0.00 0.00 70 1012.4
20220124104415 33 165 0.0 0.0 0.00 0.00 0.00 70 1012.4
20220124103915 33 165 0.0 0.0 0.00 0.00 0.00 69 1012.3
20220124103415 33 165 0.0 0.0 0.00 0.00 0.00 69 1012.3
20220124102915 33 165 0.0 0.0 0.00 0.00 0.00 69 1012.2
20220124102415 33 165 0.0 0.0 0.00 0.00 0.00 69 1012.1
20220124101915 33 165 0.0 0.0 0.00 0.00 0.00 69 1012.2
20220124101415 34 165 0.0 0.0 0.00 0.00 0.00 69 1012.2
20220124100915 34 165 0.0 0.0 0.00 0.00 0.00 68 1012.2
20220124100415 34 165 0.0 0.0 0.00 0.00 0.00 67 1012.2
20220124095915 34 165 0.0 0.0 0.00 0.00 0.00 67 1012.3
20220124095028 34 165 0.0 0.0 0.00 0.00 0.00 67 1012.2
20220124094252 34 165 0.0 0.0 0.00 0.00 0.00 68 1012.2
20220124093751 34 165 0.0 0.0 0.00 0.00 0.00 68 1012.3
20220124093251 34 165 0.0 0.0 0.00 0.00 0.00 65 1012.3
20220124092751 34 165 0.0 0.0 0.00 0.00 0.00 65 1012.3
20220124092251 34 165 0.0 0.0 0.00 0.00 0.00 65 1012.3
20220124091751 34 165 0.0 0.0 0.00 0.00 0.00 65 1012.3
20220124091251 34 165 0.0 0.0 0.00 0.00 0.00 66 1012.3
20220124090751 34 165 0.0 0.0 0.00 0.00 0.00 65 1012.3
20220124090251 34 165 0.0 0.0 0.00 0.00 0.00 64 1012.2
20220124085751 35 165 0.0 0.0 0.00 0.00 0.00 65 1012.2
20220124085251 35 165 0.0 0.0 0.00 0.00 0.00 66 1012.3
20220124084751 35 165 0.0 0.0 0.00 0.00 0.00 67 1012.3
20220124084251 35 165 0.0 0.0 0.00 0.00 0.00 67 1012.3
20220124083751 35 165 0.0 0.0 0.00 0.00 0.00 67 1012.3
20220124083251 35 165 0.0 0.0 0.00 0.00 0.00 66 1012.4
20220124082752 35 165 0.0 0.0 0.00 0.00 0.00 65 1012.4
20220124082251 35 165 0.0 0.0 0.00 0.00 0.00 65 1012.5
20220124081751 35 165 0.0 0.0 0.00 0.00 0.00 63 1012.5
20220124081251 35 165 0.0 0.0 0.00 0.00 0.00 63 1012.5
20220124080752 35 165 0.0 0.0 0.00 0.00 0.00 63 1012.5
20220124080251 35 165 0.0 0.0 0.00 0.00 0.00 64 1012.5
20220124075751 35 165 0.0 0.0 0.00 0.00 0.00 66 1012.5
20220124075251 36 165 0.0 0.0 0.00 0.00 0.00 66 1012.4
20220124074751 36 165 0.0 0.0 0.00 0.00 0.00 64 1012.4
20220124074251 36 165 0.0 0.0 0.00 0.00 0.00 64 1012.4
20220124073751 36 165 0.0 0.0 0.00 0.00 0.00 64 1012.4
20220124073251 36 165 0.0 0.0 0.00 0.00 0.00 63 1012.4
20220124072751 36 165 0.0 0.0 0.00 0.00 0.00 63 1012.4
20220124072251 36 165 0.0 0.0 0.00 0.00 0.00 62 1012.3
20220124071755 36 165 0.0 0.0 0.00 0.00 0.00 62 1012.4
20220124071253 36 165 0.0 0.0 0.00 0.00 0.00 62 1012.3
20220124070751 36 165 0.0 0.0 0.00 0.00 0.00 62 1012.4
20220124070251 36 165 0.0 0.0 0.00 0.00 0.00 62 1012.4
20220124065751 36 165 0.0 0.0 0.00 0.00 0.00 61 1012.3
20220124065253 36 165 0.0 0.0 0.00 0.00 0.00 61 1012.3
20220124064752 36 165 0.0 0.0 0.00 0.00 0.00 62 1012.4
20220124064251 36 165 0.0 0.0 0.00 0.00 0.00 61 1012.5
20220124063751 36 165 0.0 0.0 0.00 0.00 0.00 61 1012.5
20220124063251 36 165 0.0 0.0 0.00 0.00 0.00 60 1012.6
20220124062751 36 165 0.0 0.0 0.00 0.00 0.00 60 1012.5
20220124062252 37 165 0.0 0.0 0.00 0.00 0.00 60 1012.5
20220124061752 37 165 0.0 0.0 0.00 0.00 0.00 60 1012.6
20220124061253 37 165 0.0 0.0 0.00 0.00 0.00 60 1012.6
20220124060752 37 165 0.0 0.0 0.00 0.00 0.00 61 1012.6
20220124060251 37 165 0.0 0.0 0.00 0.00 0.00 61 1012.6
20220124055414 37 165 0.0 0.0 0.00 0.00 0.00 59 1013.0
20220124054606 37 165 0.0 0.0 0.00 0.00 0.00 58 1013.2
20220124054106 38 165 0.0 0.0 0.00 0.00 0.00 58 1013.2
20220124053606 38 165 0.0 0.0 0.00 0.00 0.00 58 1013.2
20220124053105 38 165 0.0 0.0 0.00 0.00 0.00 57 1013.2
20220124052606 38 165 0.0 0.0 0.00 0.00 0.00 57 1013.1
20220124052106 38 165 0.0 0.0 0.00 0.00 0.00 56 1013.1
20220124051606 38 165 0.0 0.0 0.00 0.00 0.00 56 1013.1
20220124051106 38 165 0.0 0.0 0.00 0.00 0.00 56 1013.1
20220124050606 38 165 0.0 1.0 0.00 0.00 0.00 56 1013.2
20220124050107 38 165 0.0 1.0 0.00 0.00 0.00 55 1013.1
20220124045606 38 165 0.0 2.0 0.00 0.00 0.00 55 1013.1
20220124045106 38 165 0.0 2.0 0.00 0.00 0.00 55 1013.1
20220124044608 39 165 0.0 0.0 0.00 0.00 0.00 55 1013.1
20220124044107 39 165 0.0 0.0 0.00 0.00 0.00 55 1013.0
20220124043607 39 165 0.0 0.0 0.00 0.00 0.00 55 1013.0
20220124043106 39 165 0.0 0.0 0.00 0.00 0.00 54 1013.0
20220124042606 39 165 0.0 0.0 0.00 0.00 0.00 54 1013.0
20220124042106 39 165 0.0 0.0 0.00 0.00 0.00 55 1013.0
20220124041606 39 165 0.0 0.0 0.00 0.00 0.00 54 1013.1
20220124041106 39 165 0.0 1.0 0.00 0.00 0.00 54 1013.1
20220124040608 39 165 0.0 2.0 0.00 0.00 0.00 54 1013.0
20220124040108 39 165 0.0 2.0 0.00 0.00 0.00 54 1013.2
20220124035606 39 165 0.0 0.0 0.00 0.00 0.00 54 1013.0
20220124035106 40 165 0.0 1.0 0.00 0.00 0.00 53 1013.0
20220124034607 40 165 0.0 1.0 0.00 0.00 0.00 53 1013.0
20220124034107 40 165 0.0 0.0 0.00 0.00 0.00 53 1013.2
20220124033608 40 165 0.0 0.0 0.00 0.00 0.00 53 1013.2
20220124033107 40 165 0.0 0.0 0.00 0.00 0.00 52 1013.1
20220124032608 40 165 0.0 0.0 0.00 0.00 0.00 53 1013.2
20220124032111 40 165 0.0 0.0 0.00 0.00 0.00 52 1013.1
20220124031605 40 165 0.0 0.0 0.00 0.00 0.00 52 1013.1
20220124031107 40 165 0.0 0.0 0.00 0.00 0.00 51 1013.1
20220124030607 40 165 0.0 0.0 0.00 0.00 0.00 51 1013.2
20220124030106 40 165 0.0 0.0 0.00 0.00 0.00 51 1013.2
20220124025605 41 165 0.0 0.0 0.00 0.00 0.00 52 1013.2
20220124025107 41 165 0.0 0.0 0.00 0.00 0.00 51 1013.2
20220124024607 41 165 0.0 0.0 0.00 0.00 0.00 50 1013.1
20220124024106 41 165 0.0 0.0 0.00 0.00 0.00 51 1013.1
20220124023607 41 165 0.0 0.0 0.00 0.00 0.00 51 1013.1
20220124023107 41 165 0.0 1.0 0.00 0.00 0.00 50 1013.1
20220124022606 41 165 0.0 1.0 0.00 0.00 0.00 50 1013.0
20220124022107 41 165 0.0 1.0 0.00 0.00 0.00 51 1012.9
20220124021606 41 165 0.0 1.0 0.00 0.00 0.00 51 1012.8
20220124021107 41 165 0.0 1.0 0.00 0.00 0.00 51 1012.8
20220124020608 41 165 0.0 0.0 0.00 0.00 0.00 51 1012.7
20220124015805 41 165 0.0 0.0 0.00 0.00 0.00 52 1012.8
20220124015006 41 165 0.0 0.0 0.00 0.00 0.00 51 1012.9
20220124014349 41 165 0.0 1.0 0.00 0.00 0.00 51 1012.8
20220124013849 41 165 0.0 0.0 0.00 0.00 0.00 53 1012.8
20220124013349 41 165 0.0 0.0 0.00 0.00 0.00 52 1012.7
20220124012849 41 165 0.0 0.0 0.00 0.00 0.00 52 1012.7
20220124012350 41 165 0.0 0.0 0.00 0.00 0.00 51 1012.7
20220124011849 41 165 0.0 0.0 0.00 0.00 0.00 51 1012.6
20220124011351 41 165 0.0 0.0 0.00 0.00 0.00 53 1012.7
20220124010849 41 165 0.0 0.0 0.00 0.00 0.00 53 1012.6
20220124010350 42 165 0.0 0.0 0.00 0.00 0.00 52 1012.7
20220124005850 42 165 0.0 0.0 0.00 0.00 0.00 53 1012.7
20220124005349 42 165 0.0 0.0 0.00 0.00 0.00 51 1012.6
20220124004849 42 165 0.0 0.0 0.00 0.00 0.00 52 1012.7
20220124004349 42 165 0.0 0.0 0.00 0.00 0.00 52 1012.6
20220124003849 42 165 0.0 0.0 0.00 0.00 0.00 50 1012.6
20220124003349 43 165 0.0 0.0 0.00 0.00 0.00 51 1012.6
20220124002849 43 165 0.0 0.0 0.00 0.00 0.00 50 1012.5
20220124002349 43 165 0.0 0.0 0.00 0.00 0.00 51 1012.6
20220124001849 43 165 0.0 0.0 0.00 0.00 0.00 50 1012.6
20220124001350 43 165 0.0 0.0 0.00 0.00 0.00 48 1012.6
20220124000849 44 165 0.0 0.0 0.00 0.00 0.00 48 1012.6
20220124000349 44 165 0.0 0.0 0.00 0.00 0.00 48 1012.6
20220123235849 44 165 0.0 0.0 0.00 0.00 0.00 48 1012.6
20220123235349 44 165 0.0 0.0 0.00 0.00 0.00 48 1012.6
20220123234849 45 165 0.0 0.0 0.00 0.00 0.00 47 1012.6
20220123234349 45 165 0.0 0.0 0.00 0.00 0.00 46 1012.6
20220123233849 45 165 0.0 0.0 0.00 0.00 0.00 46 1012.5
20220123233349 46 165 0.0 0.0 0.00 0.00 0.00 46 1012.4
20220123232850 46 165 0.0 0.0 0.00 0.00 0.00 44 1012.4
20220123232349 46 165 0.0 0.0 0.00 0.00 0.00 44 1012.3
20220123231850 46 165 0.0 0.0 0.00 0.00 0.00 43 1012.3
20220123231349 47 165 0.0 0.0 0.00 0.00 0.00 43 1012.3
20220123230849 47 165 0.0 0.0 0.00 0.00 0.00 43 1012.4
20220123230349 47 165 0.0 0.0 0.00 0.00 0.00 41 1012.3
20220123225824 47 165 0.0 0.0 0.00 0.00 0.00 42 1012.4
20220123225324 47 165 0.0 1.0 0.00 0.00 0.00 42 1012.3
20220123224824 48 165 0.0 1.0 0.00 0.00 0.00 41 1012.3
20220123224324 48 165 0.0 2.0 0.00 0.00 0.00 41 1012.3
20220123223824 48 165 0.0 2.0 0.00 0.00 0.00 44 1012.2
20220123223324 48 165 0.0 1.0 0.00 0.00 0.00 42 1012.4
20220123222824 48 165 0.0 2.0 0.00 0.00 0.00 41 1012.4
20220123222324 49 165 0.0 3.0 0.00 0.00 0.00 41 1012.5
20220123221824 49 165 0.0 3.0 0.00 0.00 0.00 41 1012.4
20220123221324 49 165 0.0 3.0 0.00 0.00 0.00 40 1012.3
20220123220824 49 165 0.0 1.0 0.00 0.00 0.00 41 1012.5
20220123220325 49 165 0.0 4.0 0.00 0.00 0.00 39 1012.6
20220123215824 49 165 0.0 4.0 0.00 0.00 0.00 39 1012.5
20220123215327 50 165 0.0 3.0 0.00 0.00 0.00 38 1012.5
20220123214404 50 165 0.0 3.0 0.00 0.00 0.00 38 1012.5
20220123213821 50 165 0.0 5.0 0.00 0.00 0.00 37 1012.5
20220123213321 50 165 0.0 6.0 0.00 0.00 0.00 35 1012.5
20220123212821 50 165 1.0 6.0 0.00 0.00 0.00 36 1012.6
20220123212321 51 176 0.0 7.0 0.00 0.00 0.00 36 1012.6
20220123211824 51 176 0.0 7.0 0.00 0.00 0.00 36 1012.4
20220123211321 51 176 0.0 4.0 0.00 0.00 0.00 37 1012.3
20220123210821 52 176 0.0 2.0 0.00 0.00 0.00 36 1012.4
20220123210321 52 176 0.0 0.0 0.00 0.00 0.00 35 1012.3
20220123205821 52 176 0.0 1.0 0.00 0.00 0.00 36 1012.4
20220123205321 53 176 0.0 6.0 0.00 0.00 0.00 35 1012.3
20220123204821 53 176 0.0 6.0 0.00 0.00 0.00 34 1012.2
20220123204321 53 176 0.0 3.0 0.00 0.00 0.00 35 1012.3
20220123203821 53 176 0.0 2.0 0.00 0.00 0.00 35 1012.3
20220123203321 54 176 0.0 6.0 0.00 0.00 0.00 37 1012.4
20220123202821 53 176 1.0 6.0 0.00 0.00 0.00 35 1012.3
20220123202321 54 199 0.0 6.0 0.00 0.00 0.00 34 1012.3
20220123201821 54 199 1.0 6.0 0.00 0.00 0.00 33 1012.5
20220123201321 54 189 0.0 5.0 0.00 0.00 0.00 34 1012.6
20220123200821 54 189 0.0 4.0 0.00 0.00 0.00 35 1012.5
20220123200321 54 189 0.0 3.0 0.00 0.00 0.00 34 1012.5
20220123195821 54 189 0.0 6.0 0.00 0.00 0.00 34 1012.5
20220123195320 54 189 1.0 6.0 0.00 0.00 0.00 34 1012.6
20220123194821 55 193 0.0 1.0 0.00 0.00 0.00 38 1012.6
20220123194321 54 193 0.0 4.0 0.00 0.00 0.00 35 1012.5
20220123193821 54 193 0.0 5.0 0.00 0.00 0.00 35 1012.6
20220123193321 55 193 0.0 5.0 0.00 0.00 0.00 35 1013.1
20220123192821 55 193 0.0 4.0 0.00 0.01 0.00 36 1013.0
20220123192320 55 193 0.0 4.0 0.00 0.01 0.00 35 1013.0
20220123191821 55 193 0.0 5.0 0.00 0.01 0.00 37 1013.1
20220123191320 54 193 0.0 5.0 0.00 0.01 0.00 36 1013.2
20220123190821 54 193 0.0 4.0 0.00 0.01 0.00 37 1013.2
20220123190321 54 193 0.0 7.0 0.00 0.01 0.00 37 1013.1
20220123185821 54 193 0.0 7.0 0.00 0.01 0.00 36 1013.2
20220123185320 54 193 0.0 7.0 0.00 0.01 0.00 37 1013.3
20220123184821 54 193 1.0 7.0 0.00 0.01 0.00 37 1013.3
20220123183821 53 134 0.0 4.0 0.00 0.01 0.00 40 1013.6
20220123183321 53 134 0.0 3.0 0.00 0.01 0.00 42 1013.8
20220123182821 52 134 0.0 3.0 0.00 0.01 0.00 39 1013.8
20220123182321 52 134 0.0 4.0 0.00 0.01 0.00 42 1013.8
20220123181821 51 134 0.0 4.0 0.00 0.01 0.00 43 1013.9
20220123181321 50 134 0.0 0.0 0.00 0.01 0.00 46 1013.9
20220123180821 50 134 0.0 0.0 0.00 0.01 0.00 46 1014.0
20220123180321 49 134 0.0 0.0 0.00 0.01 0.00 45 1014.1
20220123175821 48 134 0.0 0.0 0.00 0.01 0.00 46 1014.2
20220123175028 47 134 0.0 6.0 0.00 0.01 0.00 47 1014.3
20220123174529 47 134 0.0 6.0 0.00 0.01 0.00 48 1014.4
20220123174028 47 134 0.0 4.0 0.00 0.01 0.00 48 1014.5
20220123173528 46 134 0.0 5.0 0.00 0.01 0.00 48 1014.7
20220123173028 46 134 1.0 5.0 0.00 0.01 0.00 50 1015.1
20220123172528 45 178 0.0 1.0 0.00 0.01 0.00 50 1015.2
20220123172028 45 178 0.0 1.0 0.00 0.01 0.00 49 1015.4
20220123171528 44 178 0.0 0.0 0.00 0.02 0.00 52 1015.6
20220123171028 44 178 0.0 4.0 0.00 0.03 0.00 50 1015.7
20220123170528 44 178 0.0 4.0 0.00 0.03 0.00 50 1015.8
20220123170028 43 178 0.0 4.0 0.00 0.03 0.00 53 1015.9
20220123165528 43 178 0.0 5.0 0.00 0.03 0.00 52 1015.9
20220123165028 42 178 0.0 6.0 0.00 0.03 0.00 53 1016.1
20220123164528 41 178 0.0 6.0 0.00 0.03 0.00 55 1016.1
20220123164029 41 178 0.0 5.0 0.00 0.03 0.00 57 1016.3
20220123163528 41 178 1.0 5.0 0.00 0.03 0.00 56 1016.4
20220123163028 40 214 0.0 2.0 0.00 0.03 0.00 57 1016.3
20220123162528 40 214 0.0 2.0 0.00 0.03 0.00 55 1016.4
20220123162028 39 214 0.0 0.0 0.00 0.03 0.00 56 1016.5
20220123161528 38 214 0.0 0.0 0.00 0.03 0.00 56 1016.5
20220123161028 37 214 0.0 0.0 0.00 0.03 0.00 57 1016.5
20220123160528 37 214 0.0 0.0 0.00 0.03 0.00 61 1016.5
20220123160028 36 214 0.0 0.0 0.00 0.03 0.00 62 1016.6